{"data":{"norad_id":67348,"intl_designator":"2026-003Q","name":"STARLINK-36467","alt_names":[],"object_type":"PAYLOAD","status":"ACTIVE","operator":null,"country":"US","launch_date":"2026-01-09","launch_site_code":"AFETR","launch_vehicle":null,"mission":null,"orbit_class":"UNKNOWN","rcs_meters":null,"size_class":null,"mass_kg":null,"dimensions":null,"purposes":["comms"],"wikipedia_slug":null,"has_3d_model":false,"image_url":null,"decayed_at":null,"tle_current":{"epoch":"2026-09-19T21:33:31.365216Z","epoch_age_seconds":127340,"freshness":"FRESH","line1":"1 67348U 26003Q   26262.89827969  .00015626  00000+0  57590-3 0  9993","line2":"2 67348  42.9974 210.4479 0000372 231.1343 128.9475 15.27594943 38524","mean_motion":15.27594943,"eccentricity":3.72e-5,"inclination_deg":42.9974,"raan_deg":210.4479,"arg_perigee_deg":231.1343,"mean_anomaly_deg":128.9475,"bstar":0.0005759,"rev_number":3852,"period_min":94.265826592226,"perigee_km":482.7491172284,"apogee_km":483.25958614497,"semimajor_km":6861.1413516867,"source":"CELESTRAK","updated_at":"2026-09-20T09:00:43.514168Z"}}}